Colpo impetuoso (2)
| Nome | Colpo impetuoso (2) |
|---|---|
| Predefinito | Surging Strike (2) |
| Tipo | Azione ninja: attacco |
| Descrizione | **Vai di nuovo** |
| Espansione | Blitz Deck: Outsiders - Katsu #KAT019 |
| Carta da parati | |
| Immagine |
Di Colpo impetuoso (2)
Colpo impetuoso (2), Azione ninja: attacco, progettato da None rilasciato per la prima volta maggio 2022 in redazione History Pack Vol.1 ed è stato stampato esattamente in 8 forme diverse. Attualmente viene venduto al prezzo più basso di € 0,09.
Surging Strike (2) è particolarmente utile in un mazzo Ninja che si concentra su strategie frenetiche e basate su combo, consentendo attacchi multipli in un turno grazie alla sua abilità Go Again. Questa carta funziona bene in sinergia con altre carte Ninja che possono concatenare attacchi insieme, rendendola efficace nei mazzi che mirano a sopraffare rapidamente gli avversari. Sebbene esistano altre potenti carte Ninja come Whelming Gustwave o Ninja's Gambit che potrebbero offrire un valore simile o addirittura migliore a seconda della composizione specifica del mazzo, Surging Strike ha ancora il suo posto in una build Ninja a tutto tondo. Nel complesso, dovrebbe essere giocato in mazzi che sfruttano la sua velocità e la capacità di mantenere la pressione sull'avversario.
Dove comprare
![]() | TCG Player | ![]() 16 uni.
| € 0,09 | visita il negozio |
![]() | Ebay.com | visita il negozio | ||
![]() | Printing proxies | $ 0.75 | visita il negozio |
*Questo sito contiene link di affiliazione per i quali potremmo ricevere un compenso
Gruppo
avviso di prezzo ?
Avvisami quando arriva il prezzo
Storico dell'andamento dei prezzi

Storico dei prezzi
| Data | Prezzo minimo | Prezzo medio | Decks |
|---|---|---|---|
| 2024-09-03 | 0.11 EUR | 0.82 EUR | 0 |
| 2024-09-09 | 0.11 EUR | 0.82 EUR | 0 |
| 2024-09-16 | 0.11 EUR | 0.82 EUR | 0 |
| 2024-09-23 | 0.11 EUR | 0.82 EUR | 0 |
| 2024-09-30 | 0.11 EUR | 0.82 EUR | 0 |
| 2024-10-07 | 0.11 EUR | 0.82 EUR | 0 |
| 2024-10-14 | 0.11 EUR | 0.82 EUR | 0 |
| 2024-10-21 | 0.11 EUR | 0.82 EUR | 0 |
| 2024-10-28 | 0.11 EUR | 0.82 EUR | 0 |
| 2024-11-06 | 0.11 EUR | 0.82 EUR | 0 |
| 2024-11-11 | 0.11 EUR | 0.82 EUR | 0 |
| 2024-11-18 | 0.11 EUR | 0.82 EUR | 0 |
| 2024-11-25 | 0.11 EUR | 0.82 EUR | 0 |
| 2024-12-02 | 0.10 EUR | 0.79 EUR | 0 |
| 2024-12-09 | 0.05 EUR | 0.71 EUR | 0 |
| 2024-12-19 | 0.05 EUR | 0.71 EUR | 0 |
| 2024-12-23 | 0.05 EUR | 0.71 EUR | 0 |
| 2024-12-30 | 0.05 EUR | 0.71 EUR | 0 |
| 2025-01-01 | 0.05 EUR | 0.71 EUR | 0 |
| 2025-01-06 | 0.05 EUR | 0.71 EUR | 0 |
| 2025-01-13 | 0.05 EUR | 0.71 EUR | 0 |
| 2025-01-20 | 0.05 EUR | 0.71 EUR | 0 |
| 2025-01-27 | 0.05 EUR | 0.71 EUR | 0 |
| 2025-02-03 | 0.05 EUR | 0.89 EUR | 0 |
| 2025-02-10 | 0.05 EUR | 1.08 EUR | 0 |
| 2025-02-20 | 0.06 EUR | 0.68 EUR | 0 |
| 2025-04-27 | 0.07 EUR | 0.68 EUR | 0 |
| 2025-04-28 | 0.07 EUR | 0.67 EUR | 0 |
| 2025-05-06 | 0.07 EUR | 0.67 EUR | 0 |
| 2025-05-12 | 0.07 EUR | 0.67 EUR | 0 |
| 2025-05-19 | 0.08 EUR | 0.67 EUR | 0 |
| 2025-05-28 | 0.08 EUR | 0.67 EUR | 0 |
| 2025-06-03 | 0.08 EUR | 0.67 EUR | 0 |
| 2025-06-10 | 0.07 EUR | 0.65 EUR | 0 |
| 2025-06-17 | 0.07 EUR | 0.64 EUR | 0 |
| 2025-06-23 | 0.07 EUR | 0.64 EUR | 0 |
| 2025-07-01 | 0.07 EUR | 0.65 EUR | 0 |
| 2025-07-08 | 0.08 EUR | 0.64 EUR | 0 |
| 2025-07-15 | 0.08 EUR | 0.64 EUR | 0 |
| 2025-07-22 | 0.07 EUR | 0.64 EUR | 0 |
| 2025-07-29 | 0.07 EUR | 0.64 EUR | 0 |
| 2025-08-05 | 0.07 EUR | 0.64 EUR | 0 |
| 2025-08-12 | 0.08 EUR | 0.62 EUR | 0 |
| 2025-08-18 | 0.08 EUR | 0.63 EUR | 0 |
| 2025-08-25 | 0.08 EUR | 0.63 EUR | 0 |
| 2025-09-02 | 0.08 EUR | 0.63 EUR | 0 |
| 2025-09-09 | 0.08 EUR | 0.63 EUR | 0 |
| 2025-09-15 | 0.09 EUR | 0.11 EUR | 0 |
| 2025-09-23 | 0.09 EUR | 0.69 EUR | 0 |
| 2025-09-29 | 0.09 EUR | 0.62 EUR | 0 |
| 2025-10-06 | 0.09 EUR | 0.82 EUR | 0 |
| 2025-10-13 | 0.09 EUR | 1.31 EUR | 0 |
| 2025-10-20 | 0.09 EUR | 0.63 EUR | 0 |
| 2025-10-27 | 0.09 EUR | 0.63 EUR | 0 |
| 2025-11-03 | 0.09 EUR | 0.63 EUR | 0 |
| 2025-11-10 | 0.09 EUR | 0.63 EUR | 0 |
| 2025-11-18 | 0.09 EUR | 0.62 EUR | 0 |
| 2025-11-24 | 0.09 EUR | 0.62 EUR | 0 |
| 2025-12-03 | 0.09 EUR | 0.90 EUR | 0 |
| 2025-12-08 | 0.09 EUR | 0.65 EUR | 0 |
| 2025-12-15 | 0.09 EUR | 0.71 EUR | 0 |
| 2025-12-22 | 0.09 EUR | 0.64 EUR | 0 |
| 2025-12-29 | 0.09 EUR | 0.64 EUR | 0 |
| 2026-01-01 | 0.10 EUR | 0.65 EUR | 0 |
| 2026-01-05 | 0.10 EUR | 0.72 EUR | 0 |
| 2026-01-13 | 0.11 EUR | 0.76 EUR | 0 |
| 2026-01-20 | 0.12 EUR | 0.64 EUR | 0 |
| 2026-01-26 | 0.11 EUR | 0.80 EUR | 0 |
| 2026-02-02 | 0.11 EUR | 0.69 EUR | 0 |
| 2026-02-09 | 0.11 EUR | 0.61 EUR | 0 |
| 2026-02-16 | 0.11 EUR | 0.61 EUR | 0 |
| 2026-02-23 | 0.11 EUR | 0.64 EUR | 0 |
| 2026-03-02 | 0.11 EUR | 0.61 EUR | 0 |
| 2026-03-10 | 0.11 EUR | 0.78 EUR | 0 |
| 2026-03-16 | 0.11 EUR | 0.64 EUR | 0 |
| 2026-04-02 | 0.10 EUR | 0.66 EUR | 0 |
| 2026-04-07 | 0.12 EUR | 0.21 EUR | 0 |
| 2026-04-14 | 0.11 EUR | 0.20 EUR | 0 |
| 2026-04-23 | 0.11 EUR | 0.21 EUR | 0 |
| 2026-04-30 | 0.11 EUR | 0.21 EUR | 0 |
| 2026-05-05 | 0.11 EUR | 0.21 EUR | 0 |
| 2026-05-14 | 0.10 EUR | 0.18 EUR | 0 |
| 2026-05-20 | 0.10 EUR | 0.19 EUR | 0 |
| 2026-05-25 | 0.10 EUR | 0.18 EUR | 0 |
| 2026-06-01 | 0.10 EUR | 0.19 EUR | 0 |
| 2026-06-08 | 0.10 EUR | 0.14 EUR | 0 |
| 2026-06-15 | 0.10 EUR | 0.13 EUR | 0 |
| 2026-06-23 | 0.10 EUR | 0.13 EUR | 0 |
| 2026-06-29 | 0.10 EUR | 0.13 EUR | 0 |
| 2026-07-06 | 0.10 EUR | 0.32 EUR | 0 |
| 2026-07-13 | 0.10 EUR | 0.58 EUR | 0 |
| 2026-07-20 | 0.08 EUR | 0.57 EUR | 0 |
| 2026-07-27 | 0.08 EUR | 0.56 EUR | 0 |
| 2026-08-03 | 0.08 EUR | 0.65 EUR | 0 |
| 2026-08-10 | 0.09 EUR | 0.56 EUR | 0 |
| 2026-08-17 | 0.09 EUR | 0.56 EUR | 0 |
| 2026-08-24 | 0.09 EUR | 0.19 EUR | 0 |
| 2026-09-01 | 0.09 EUR | 0.11 EUR | 0 |
Domande frequenti su Colpo impetuoso (2)
Che tipo di carta è Colpo impetuoso (2)?
Colpo impetuoso (2) è Azione ninja: attacco carta inserita Flesh and Blood FAB.
Qual è l'effetto della carta Colpo impetuoso (2)?
**Vai di nuovo**
Qual è il prezzo della carta Colpo impetuoso (2)?
Colpo impetuoso (2) attualmente inizia alle € 0,09. Visualizza i prezzi in tempo reale di più venditori nella sezione Dove acquistare sopra.
Qual è il set originale della carta Colpo impetuoso (2)?
Colpo impetuoso (2) è stato rilasciato per la prima volta nel set History Pack Vol.1.
Qual è la legalità della carta Colpo impetuoso (2)?
La legalità dipende dal formato del torneo: Colpo impetuoso (2) può essere legale in alcuni formati e vietato o limitato in altri. Consulta la ripartizione completa per formato nella sezione Legalità sopra.
Quali carte sono simili a Colpo impetuoso (2)?
Carte simili a Colpo impetuoso (2) includere Frenesia Ribelle, Rush Ribelle, Rush Ribelle. Consulta l'elenco completo nella sezione Carte simili sopra.





Reazioni
0
0 Commenti
Diventa il primo a commentare